Location: Bois Neuf
(42.7667°N, 0.6333°E)
Time: 04:46:23
(UTC+00:00)

STARLINK-1299 - Pass Details

Date: 07 June 2020
Orbit: 568 x 571 km, 53.0° (Epoch: 10 July)

Event Time Altitude Azimuth Distance (km) Brightness Sun altitude
Exits shadow 01:24:22 63° 158° (SSE) 636 3.6 -21.4°
Maximum altitude 01:24:35 64° 140° (SE) 630 3.7 -21.4°
Drops below altitude 10° 01:28:48 10° 59° (ENE) 1,872 7.1 -21.1°
Sets 01:31:04 0° 56° (NE) 2,773 8.1 -20.9°
